Location: Unspecified
(0.0000°N, 0.0000°E)
Time: 05:47:35
(UTC+00:00)

S-56A Canister/Altair - Visible Passes

Search period start: 02 July 2016 00:00
Search period end: 12 July 2016 00:00
Orbit: 639 x 2496 km, 38.9° (Epoch: 27 June)

Date Brightness Start Highest point End Pass type
(mag) Time Alt. Az. Time Alt. Az. Time Alt. Az.
02 Jul 10.5 01:33:32 10° NNW 01:47:06 40° NE 01:58:06 10° ESE visible
02 Jul 9.3 03:39:49 10° NW 03:53:49 72° SW 04:03:35 10° SE visible
02 Jul 11.7 22:59:41 10° N 23:04:04 12° NNE 23:08:26 10° NE visible
03 Jul 10.8 01:00:32 10° NNW 01:19:33 27° ENE 01:25:02 10° E visible
03 Jul 9.3 03:06:17 10° NW 03:20:52 82° SW 03:31:20 10° SE visible
03 Jul 10.1 05:17:40 10° W 05:26:01 21° SW 05:32:37 10° S visible
04 Jul 11.0 00:27:39 10° NNW 00:53:16 - E 00:36:21 29° N visible
04 Jul 9.7 02:32:51 10° NW 02:50:58 60° SE 02:58:57 10° SE visible
04 Jul 10.0 04:48:40 21° WSW 04:53:17 27° SW 05:01:01 10° S visible
04 Jul 11.1 23:54:53 10° NNW 00:03:13 26° NNE 00:03:13 26° NNE visible
05 Jul 10.6 01:59:31 10° NW 02:22:40 27° SE 02:26:26 10° SE visible
05 Jul 9.9 04:20:17 33° SW 04:20:29 33° SW 04:29:14 10° SSE visible
05 Jul 11.2 23:22:15 10° NNW 23:30:42 24° NNE 23:30:42 24° NNE visible
06 Jul 11.3 01:26:17 10° NW 01:53:39 11° ESE 01:53:48 10° ESE visible
06 Jul 10.0 03:51:13 33° S 03:51:13 33° S 03:57:17 10° SSE visible
06 Jul 11.2 22:49:47 10° NNW 22:58:32 22° NNE 22:58:32 22° NNE visible
07 Jul 11.4 00:53:11 10° NW 00:55:52 18° NW 00:55:52 18° NW visible
07 Jul 10.5 03:21:44 24° SSE 03:21:44 24° SSE 03:25:11 10° SSE visible
07 Jul 11.3 22:17:30 10° N 22:26:36 19° NNE 22:26:36 19° NNE visible
08 Jul 11.3 00:20:11 10° NW 00:23:56 21° NNW 00:23:56 21° NNW visible
08 Jul 11.0 02:51:57 14° SSE 02:51:57 14° SSE 02:52:58 10° SSE visible
08 Jul 10.7 04:49:28 12° SSW 04:49:28 12° SSW 04:52:10 10° SSW visible
08 Jul 11.3 21:45:30 10° N 21:53:13 16° NNE 21:54:50 16° NE visible
08 Jul 11.2 23:47:18 10° NNW 23:52:11 25° NNW 23:52:11 25° NNW visible
09 Jul 10.8 04:19:26 13° SSW 04:19:26 13° SSW 04:21:16 10° S visible
09 Jul 11.4 21:13:56 10° N 21:19:46 14° NNE 21:23:12 12° NE visible
09 Jul 11.0 23:14:33 10° NNW 23:20:34 28° NNW 23:20:34 28° NNW visible
10 Jul 11.0 03:49:14 11° S 03:49:14 11° S 03:49:46 10° S visible
10 Jul 11.5 20:43:33 10° NNE 20:46:21 11° NNE 20:49:16 10° NE visible
10 Jul 10.9 22:41:57 10° NNW 22:49:04 31° N 22:49:04 31° N visible
11 Jul 10.8 22:09:28 10° NNW 22:17:40 31° NNE 22:17:40 31° NNE visible
